Regional Weather Roundup
Issued by NWS State College, PA

Home | Current Version | Previous Version | Graphics & Text | Print | Product List | Glossary Off
Versions: 1 2 3 4 5 6 7 8 9 10 11 12 13 14 15 16 17 18 19 20 21 22 23 24 25 26 27 28 29 30 31 32 33 34 35 36 37 38 39 40 41 42 43 44 45 46 47 48 49 50

000
ASUS41 KCTP 201203
RWRCTP

REGIONAL WEATHER ROUNDUP
NATIONAL WEATHER SERVICE STATE COLLEGE PA
800 AM EDT MON OCT 20 2014

Note: "fair" indicates few or no clouds below 12,000 feet with no
significant weather and/or obstructions to visibility.

* = STATION THAT DOES NOT REPORT PRECIPITATION /E.G. RAIN...SNOW...ETC/
    THUNDER OR FOG.

PAZ002>004-007>009-013>016-020>023-029>032-201300-
WESTERN PENNSYLVANIA

CITY           SKY/WX    TMP DP  RH WIND       PRES   REMARKS
ERIE           MOCLDY    48  36  63 S12       29.93F
MEADVILLE      CLOUDY    44  36  73 S7        29.95F
FRANKLIN*      CLOUDY    41  34  75 S8        29.98S
NEW CASTLE       N/A     44  38  79 CALM      29.99F
BEAVER COUNTY  CLOUDY    43  37  81 S5        29.99
BUTLER*        CLOUDY    43  34  70 S8        30.01S
PITTSBURGH INT CLOUDY    43  36  76 S7        30.00S
PITTSBURGH     CLOUDY    42  33  70 S10       30.01S
INDIANA*       PTCLDY    43  37  81 SW3       30.05F
LATROBE        MOCLDY    39  37  93 SW7       30.04F
WASHINGTON CO* CLOUDY    39  36  87 CALM      30.03F
$$

PAZ004>006-010>012-017>019-024>028-033>037-041-042-045-046-049>053-201300-
CENTRAL PENNSYLVANIA

CITY           SKY/WX    TMP DP  RH WIND       PRES   REMARKS
BRADFORD       CLOUDY    40  33  76 S3        29.96F
DUBOIS         CLOUDY    42  35  76 SW6       29.98F
CLEARFIELD     CLOUDY    39  36  89 CALM      30.02S
JOHNSTOWN      CLOUDY    41  33  73 S7        30.02R
ALTOONA        MOCLDY    43  36  76 S5        30.05R
STATE COLLEGE  CLOUDY    43  36  75 CALM      30.03S
WILLIAMSPORT   CLOUDY    36  31  82 CALM      30.06S
SELINSGROVE    MOCLDY    36  34  92 CALM      30.08R
FT INDIANTOWN  PTCLDY    34  34 100 CALM      30.11R
CAPITAL CITY   CLEAR     36  33  89 SW3       30.10R
HARRISBURG     CLEAR     40  36  86 E3        30.10R
YORK           CLEAR     33  32  96 CALM      30.10R
$$

PAZ038>040-043-044-047-048-054-055-060>062-067>071-201300-
EASTERN PENNSYLVANIA

CITY           SKY/WX    TMP DP  RH WIND       PRES   REMARKS
SCRANTON       PTCLDY    34  29  82 SE5       30.05S
MOUNT POCONO   PTCLDY    35  27  72 W6        30.04R
ALLENTOWN      PTCLDY    35  32  88 CALM      30.10S
QUAKERTOWN*    MOSUNNY   32  30  93 CALM      30.11S
READING        PTCLDY    36  33  89 CALM      30.10S
LANCASTER      CLEAR     35  33  92 SE3       30.10S
COATESVILLE    SUNNY     37  34  87 CALM      30.11S
POTTSTOWN      CLEAR     32  30  92 CALM      30.13R
BLUE BELL      CLEAR     32  32 100 CALM      30.11S
DOYLESTOWN     CLEAR     31  31 100 CALM      30.11R
WILLOW GROVE   NOT AVBL
NORTH PHILA    CLEAR     37  31  78 CALM      30.14S
PHILADELPHIA   PTCLDY    41  31  67 CALM      30.13S
$$



USA.gov is the U.S. government's official web portal to all federal, state and local government web resources and services.